Salem, OR

5:28 PM PDT on June 25, 2017 (GMT -0700)
McNary

Weather History for KSLE - October, 2010

Change the Weather History Date:

Tuesday, October 12, 2010

  Actual Average Record
Temperature  
Mean Temperature 53 °F 54 °F  
Max Temperature 67 °F 66 °F 80 °F (1901)
Min Temperature 39 °F 43 °F 28 °F (1928)
Degree Days  
Heating Degree Days 12 11  
Month to date heating degree days 75 106  
Since 1 July heating degree days 222 271  
Cooling Degree Days 0 0  
Month to date cooling degree days 0 0  
Year to date cooling degree days 291 289  
Growing Degree Days 2 (Base 50)    
Moisture  
Dew Point 44 °F    
Average Humidity 73    
Maximum Humidity 93    
Minimum Humidity 52    
Precipitation  
Precipitation 0.00 in 0.08 in 0.96 in (2012)
Month to date precipitation 1.25 0.79  
Year to date precipitation 29.08 24.07  
Snow  
Snow 0.00 in - - ()
Month to date snowfall 0.0  
Snow Depth 0.00 in    
Sea Level Pressure  
Sea Level Pressure 30.29 in    
Wind  
Wind Speed 2 mph (NNW)    
Max Wind Speed 9 mph    
Max Gust Speed 18 mph    
Visibility 9 miles    
Events      
T = Trace of Precipitation, MM = Missing Value Source: NWS Daily Summary

Daily Weather History Graph

Daily Weather History Graph

Search for Another Location

Airport or City:

Trip Planner

Search our weather history database for the weather conditions in past years. The results will help you decide how hot, cold, wet, or windy it might be!

Date:

Astronomy

Oct. 12, 2010 Rise Set
Actual Time 7:23 AM PDT 6:32 PM PDT
Civil Twilight 6:54 AM PDT 7:01 PM PDT
Nautical Twilight 6:20 AM PDT 7:35 PM PDT
Astronomical Twilight 5:46 AM PDT 8:09 PM PDT
Moon 1:15 PM PDT (10/12) 10:00 PM PDT (10/12)
Length of Visible Light 12h 07m
Length of Day
11h 08m
Waxing Crescent, 29% of the Moon is Illuminated
Oct 12
Waxing Crescent
Oct 14
First Quarter
Oct 22
Full
Oct 30
Last Quarter
Nov 5
New

Hourly Weather History & Observations

Time (PDT) Temp. Dew Point Humidity Pressure Visibility Wind Dir Wind Speed Gust Speed Precip Events Conditions
12:56 AM 46.9 °F 44.1 °F 90% 30.38 in 10.0 mi NNW 3.5 mph - N/A   Clear
1:56 AM 46.9 °F 43.0 °F 86% 30.36 in 10.0 mi NW 4.6 mph - N/A   Clear
2:56 AM 45.0 °F 42.1 °F 90% 30.34 in 10.0 mi Calm Calm - N/A   Clear
3:56 AM 45.0 °F 43.0 °F 93% 30.33 in 10.0 mi Calm Calm - N/A   Clear
4:56 AM 42.1 °F 39.9 °F 92% 30.32 in 8.0 mi Calm Calm - N/A   Clear
5:56 AM 41.0 °F 39.0 °F 93% 30.32 in 10.0 mi Calm Calm - N/A   Clear
6:47 AM 39.2 °F 39.2 °F 100% 30.32 in 2.0 mi Calm Calm - N/A   Clear
6:54 AM 39.2 °F 39.2 °F 100% 30.32 in 2.0 mi Calm Calm - N/A   Mostly Cloudy
7:40 AM 39.2 °F 37.4 °F 93% 30.32 in 10.0 mi Calm Calm - N/A   Clear
7:56 AM 39.9 °F 37.9 °F 93% 30.32 in 7.0 mi Calm Calm - N/A   Clear
8:56 AM 48.0 °F 44.1 °F 86% 30.33 in 10.0 mi Calm Calm - N/A   Clear
9:56 AM 50.0 °F 44.1 °F 80% 30.34 in 10.0 mi NE 4.6 mph - N/A   Scattered Clouds
10:56 AM 54.0 °F 45.0 °F 72% 30.32 in 10.0 mi Calm Calm - N/A   Partly Cloudy
11:56 AM 55.9 °F 44.1 °F 64% 30.32 in 10.0 mi North 4.6 mph - N/A   Clear
12:56 PM 57.9 °F 45.0 °F 62% 30.31 in 10.0 mi North 3.5 mph - N/A   Clear
1:56 PM 61.0 °F 46.0 °F 58% 30.29 in 10.0 mi Variable 3.5 mph - N/A   Clear
2:56 PM 64.0 °F 46.9 °F 54% 30.27 in 10.0 mi North 8.1 mph - N/A   Clear
3:56 PM 64.9 °F 48.0 °F 54% 30.25 in 10.0 mi North 5.8 mph - N/A   Clear
4:56 PM 66.9 °F 48.0 °F 51% 30.23 in 10.0 mi NNW 5.8 mph - N/A   Clear
5:56 PM 64.9 °F 48.9 °F 56% 30.22 in 10.0 mi NNW 5.8 mph - N/A   Clear
6:56 PM 59.0 °F 48.9 °F 69% 30.21 in 10.0 mi West 3.5 mph - N/A   Clear
7:56 PM 54.0 °F 48.0 °F 80% 30.21 in 10.0 mi Calm Calm - N/A   Clear
8:56 PM 52.0 °F 46.9 °F 83% 30.21 in 10.0 mi Calm Calm - N/A   Clear
9:56 PM 51.1 °F 46.0 °F 83% 30.20 in 10.0 mi Calm Calm - N/A   Clear
10:56 PM 48.9 °F 45.0 °F 86% 30.20 in 10.0 mi Calm Calm - N/A   Clear
11:56 PM 48.0 °F 45.0 °F 89% 30.19 in 10.0 mi SE 3.5 mph - N/A   Clear